Location: Peterborough
(44.3091°N, 78.3197°W)
Time: 14:11:54
(UTC-04:00)

ACS3 Solar Sail - Visible Passes

Search period start: 07 October 2024 00:00
Search period end: 17 October 2024 00:00
Orbit: 962 x 1035 km, 97.4° (Epoch: 07 October)

Date Brightness Start Highest point End Pass type
(mag) Time Alt. Az. Time Alt. Az. Time Alt. Az.
07 Oct 2.0 20:36:56 35° SE 20:39:23 54° ENE 20:45:31 10° N visible
07 Oct 3.5 22:22:06 25° WSW 22:23:34 27° W 22:28:53 10° NW visible
08 Oct 3.3 19:23:57 10° E 19:27:54 17° ENE 19:31:49 10° NNE visible
08 Oct 1.8 21:09:07 50° SSE 21:10:59 90° NNE 21:17:21 10° NNW visible
08 Oct 4.2 22:54:17 14° W 22:55:41 15° W 22:59:12 10° NW visible
09 Oct 2.7 19:56:08 20° ESE 19:59:07 29° ENE 20:04:24 10° N visible
09 Oct 2.5 21:41:17 45° SW 21:42:43 53° W 21:48:54 10° NNW visible
10 Oct 2.1 20:28:16 35° ESE 20:30:30 48° ENE 20:36:32 10° N visible
10 Oct 3.3 22:13:26 29° WSW 22:14:36 30° W 22:20:06 10° NNW visible
11 Oct 3.4 19:15:33 10° E 19:19:04 16° ENE 19:22:33 10° NNE visible
11 Oct 1.7 21:00:25 54° SSE 21:02:02 82° ENE 21:08:22 10° N visible
11 Oct 4.1 22:45:34 16° W 22:46:38 17° W 22:50:36 10° NW visible
12 Oct 2.8 19:47:23 19° E 19:50:14 26° ENE 19:55:15 10° N visible
12 Oct 2.3 21:32:33 51° SW 21:33:42 59° W 21:39:56 10° NNW visible
13 Oct 2.2 20:19:30 34° ESE 20:21:31 43° ENE 20:27:24 10° N visible
13 Oct 3.2 22:04:39 33° WSW 22:05:30 34° W 22:11:11 10° NNW visible
14 Oct 3.5 19:07:07 10° E 19:10:07 14° NE 19:13:05 10° NNE visible
14 Oct 1.7 20:51:35 55° SE 20:52:59 74° ENE 20:59:15 10° N visible
14 Oct 3.9 22:36:45 19° W 22:37:28 19° W 22:41:50 10° NW visible
15 Oct 2.9 19:38:32 18° E 19:41:12 23° ENE 19:45:57 10° NNE visible
15 Oct 2.1 21:23:41 59° SW 21:24:34 66° W 21:30:50 10° NNW visible
16 Oct 2.3 20:10:35 32° ESE 20:12:25 39° ENE 20:18:08 10° N visible
16 Oct 3.0 21:55:44 37° WSW 21:56:18 38° W 22:02:06 10° NNW visible
